Theta_e
337 332 334 319 317 317 317 318 323 328 328 328 327 328 328 327 323 318 317 318 318 318 319 319 320 320 320 320 320 318 318 317 315
334 331 328 318 317 317 317 316 316 319 322 323 323 322 322 321 318 318 318 319 319 320 320 320 321 322 322 322 321 319 318 318 318
333 327 328 316 316 316 317 317 317 317 321 322 321 322 322 320 319 319 319 320 320 321 321 322 322 323 322 322 320 319 319 319 319
334 328 330 317 317 317 318 318 318 319 320 323 324 324 324 325 322 320 320 320 321 321 322 323 323 322 322 321 321 320 320 321 320
334 334 329 321 321 318 320 320 320 320 321 323 326 326 324 325 326 322 321 321 322 322 323 324 323 322 324 323 322 322 322 322 322
334 333 331 332 329 321 320 321 320 320 321 322 326 328 324 325 326 326 323 321 322 324 324 324 324 322 325 324 324 323 322 321 320
331 331 330 333 329 323 322 322 321 320 320 320 324 327 326 324 324 325 324 321 322 324 325 325 325 324 326 325 324 323 322 321 320
334 330 331 333 331 325 323 322 321 320 319 318 320 325 324 324 325 325 323 322 322 324 325 326 325 326 327 325 324 324 323 321 320
334 332 333 331 330 326 323 322 322 321 321 321 321 325 325 324 325 326 325 327 325 325 326 326 325 324 325 325 326 324 322 322 320
332 332 333 330 328 325 322 322 322 321 320 322 324 327 328 326 326 327 328 328 327 326 324 326 324 322 324 324 325 326 323 322 320
326 327 328 325 323 323 322 321 320 320 321 320 326 327 329 329 329 328 329 328 327 325 327 326 325 323 324 324 324 323 323 323 320
321 322 322 320 321 322 321 321 323 324 323 325 329 329 329 330 329 328 328 327 328 326 327 325 327 326 324 324 323 323 324 323 321
324 324 323 321 322 321 322 323 324 324 328 328 329 330 329 329 330 329 328 328 327 327 327 328 327 322 320 322 323 324 324 324 321
326 325 326 323 322 322 323 324 326 326 328 329 329 330 330 329 329 329 328 329 328 327 327 328 325 315 318 320 324 325 324 324 322
330 329 325 324 324 324 325 326 325 325 328 330 329 330 330 330 329 329 328 326 328 328 328 327 316 316 320 323 325 325 325 324 323
332 330 328 326 323 323 326 325 324 327 328 328 328 330 330 330 330 329 328 328 328 328 326 317 314 315 316 321 325 325 324 322 322
331 330 328 325 324 327 325 325 326 328 329 329 329 330 331 330 330 329 327 328 328 320 318 315 314 315 315 320 323 323 322 322 321
330 326 325 323 328 328 329 329 328 329 329 330 329 330 330 330 329 329 328 329 328 319 317 317 316 314 314 314 315 315 321 320 320
325 325 327 328 330 331 329 331 330 330 330 329 329 329 330 328 328 328 329 327 325 321 320 319 318 316 314 314 315 316 318 319 318
331 332 332 330 334 332 332 329 329 329 329 329 327 328 329 329 327 326 326 325 324 323 322 321 319 318 317 315 314 314 315 317 317
Wind_Speed
17 16 18 17 18 19 21 21 22 21 17 14 10 10 9 8 7 6 7 7 9 9 10 11 11 11 11 12 11 12 12 11 10
19 18 17 17 19 19 19 19 20 19 16 14 11 9 9 7 7 7 7 8 8 9 9 9 9 10 10 10 11 11 11 10 10
18 18 18 19 19 19 18 18 18 18 15 11 9 9 9 9 8 7 7 7 7 7 7 8 8 9 10 9 10 10 10 10 10
20 20 18 19 20 19 18 17 16 15 13 11 8 6 7 7 8 7 5 6 6 6 6 7 8 9 9 9 10 10 9 9 9
24 20 19 20 20 20 18 16 15 13 12 10 8 5 4 6 5 5 5 4 4 4 5 6 7 8 8 8 9 9 8 8 9
24 23 22 21 20 18 16 15 14 13 12 11 9 6 4 4 4 2 3 2 2 3 4 4 5 6 6 6 7 8 8 8 9
26 25 26 22 20 19 16 14 14 13 12 12 10 8 5 2 1 1 2 1 2 2 3 3 4 5 3 5 6 6 6 7 9
31 27 26 24 23 21 19 17 14 12 11 11 12 9 6 4 1 2 2 2 3 4 3 4 4 4 3 5 4 4 4 6 7
34 30 28 26 26 24 21 17 14 13 12 11 12 8 6 6 3 1 3 3 3 5 4 4 6 6 5 6 5 5 5 5 7
37 33 30 29 29 24 21 18 16 14 12 12 12 10 5 6 6 4 3 5 5 5 4 4 5 7 8 8 8 6 6 5 5
39 37 35 32 27 23 20 18 16 14 12 13 13 10 9 8 7 5 4 6 9 6 4 4 7 9 11 11 10 9 7 5 5
39 37 34 27 25 23 20 19 16 15 14 14 12 11 10 11 7 5 7 7 9 5 8 8 10 13 13 12 13 10 8 6 6
33 32 30 28 26 25 23 20 18 16 15 15 14 13 11 11 12 11 11 11 9 10 13 15 17 16 14 13 13 9 7 7 8
31 31 29 29 27 26 23 20 17 17 18 16 14 14 15 10 12 14 15 13 15 15 16 19 20 14 11 9 10 10 9 9 9
30 29 28 30 28 25 23 21 20 21 18 16 16 16 15 15 16 16 16 15 15 18 20 22 15 11 7 6 10 11 10 10 10
32 30 30 30 28 27 24 23 22 22 18 16 18 18 14 16 18 17 19 20 20 21 22 15 12 7 7 11 12 9 10 11 13
34 32 33 31 30 27 25 25 26 22 20 20 17 17 19 20 22 21 19 21 19 17 14 12 9 8 7 8 10 12 13 14 15
34 35 35 32 30 29 28 26 25 25 24 23 19 11 12 21 24 24 22 24 21 14 10 9 8 9 9 9 10 12 13 15 13
34 32 31 32 32 31 29 28 28 25 23 25 27 26 12 13 11 24 27 23 21 14 13 11 9 10 10 11 11 10 12 14 13
33 30 32 33 34 31 32 29 22 22 23 22 21 22 25 28 24 17 25 23 22 19 16 14 13 13 12 11 12 13 13 14 11
Wind_Direction
166 166 158 153 145 140 138 136 139 141 138 134 131 126 119 111 102 101 99 90 82 75 68 64 59 56 51 47 44 43 44 45 44
179 175 167 161 154 152 147 145 147 152 149 147 150 139 127 113 110 103 94 87 80 73 67 61 56 49 44 42 40 40 42 42 43
185 180 174 166 161 158 153 150 150 152 152 148 146 133 125 114 110 101 96 87 79 72 65 58 50 44 41 40 37 39 41 45 45
188 181 179 173 168 163 158 155 153 154 154 151 148 133 118 108 102 94 89 83 77 67 56 50 45 44 43 39 44 46 43 40 38
189 185 180 177 177 169 165 161 160 159 159 161 156 154 132 124 94 81 71 63 63 58 50 44 42 42 45 51 42 34 29 28 25
183 191 186 183 180 176 175 171 165 162 161 166 166 168 159 139 118 77 58 24 25 30 30 32 33 35 46 42 32 25 23 25 26
188 191 188 184 185 184 182 179 175 173 170 171 174 178 197 177 93 13 345 327 320 329 345 357 6 14 27 21 13 22 20 20 19
192 194 184 185 188 189 187 186 183 181 180 180 182 187 205 214 157 346 316 310 298 294 310 324 331 344 327 344 341 353 357 2 0
195 199 188 193 189 194 194 192 193 195 193 189 186 185 212 229 217 228 291 319 306 294 298 303 310 326 323 317 322 318 329 334 344
197 198 192 196 195 193 192 196 201 205 203 199 194 191 185 205 221 224 308 296 324 304 288 276 289 304 312 312 305 298 310 311 322
200 201 197 198 196 195 196 202 204 206 211 208 200 196 188 218 240 256 283 300 327 313 281 272 291 298 292 292 294 289 296 289 300
204 202 201 200 197 196 195 199 203 204 206 201 206 207 208 218 230 248 253 268 298 291 272 283 301 298 284 285 285 278 280 273 280
204 203 203 200 198 197 199 202 207 209 209 208 216 214 219 220 239 243 243 245 274 268 265 282 298 294 281 272 263 261 262 259 277
204 206 209 201 198 200 203 207 212 213 215 219 220 221 218 221 237 237 244 259 270 263 272 285 295 286 280 259 242 245 251 255 269
204 209 205 200 202 206 208 214 219 219 220 225 229 213 222 224 238 242 258 270 268 270 277 289 282 282 257 225 224 244 251 260 282
207 210 206 205 207 210 212 216 216 216 213 216 219 219 234 219 234 243 256 262 266 276 280 270 272 279 262 228 227 252 263 271 282
213 216 211 211 212 214 212 210 212 212 209 212 215 223 227 228 242 248 254 257 267 270 269 275 275 268 264 231 238 259 269 278 284
218 216 214 212 214 211 207 210 211 209 211 216 214 212 219 222 235 240 246 250 257 255 258 283 285 283 281 267 259 259 252 263 277
218 214 214 216 215 216 216 213 213 211 217 215 219 228 227 206 221 231 227 232 242 241 265 274 283 279 276 273 275 272 263 268 271
211 213 216 213 218 221 227 225 232 235 233 237 241 238 239 236 244 220 215 220 232 236 260 261 267 273 274 275 275 272 265 265 266